EW9431 Weather Reports


Display with metric or nautical units.
time (UTC)temp
F
wind
direction
speed
MPH
gust
MPH
rain 1hr
in
rain 24hr
in
rain mn
in
humidity
%
barometer
mb
20260505010007 83 214 2.0 6.0 0.00 0.00 0.00 31 1007.9
20260505005505 83 207 4.0 6.0 0.00 0.00 0.00 29 1007.9
20260505005004 84 226 3.0 5.0 0.00 0.00 0.00 30 1007.9
20260505004510 84 203 2.0 7.0 0.00 0.00 0.00 29 1007.9
20260505004001 84 206 3.0 7.0 0.00 0.00 0.00 30 1008.0
20260505003600 84 219 1.0 5.0 0.00 0.00 0.00 30 1008.0
20260505003100 84 232 1.0 5.0 0.00 0.00 0.00 28 1007.9
20260505002602 84 252 1.0 5.0 0.00 0.00 0.00 28 1007.9
20260505002059 84 198 2.0 6.0 0.00 0.00 0.00 29 1007.9
20260505001558 84 200 2.0 6.0 0.00 0.00 0.00 29 1007.9
20260505001055 84 218 1.0 5.0 0.00 0.00 0.00 29 1007.9
20260505000555 84 230 2.0 6.0 0.00 0.00 0.00 29 1007.9
20260505000058 83 292 0.0 6.0 0.00 0.00 0.00 29 1008.0
20260504235553 83 218 2.0 8.0 0.00 0.00 0.00 29 1008.0
20260504235053 83 195 4.0 8.0 0.00 0.00 0.00 29 1008.0
20260504234552 83 199 2.0 7.0 0.00 0.00 0.00 28 1008.1
20260504234051 83 207 2.0 7.0 0.00 0.00 0.00 29 1008.1
20260504233552 83 176 3.0 7.0 0.00 0.00 0.00 27 1008.1
20260504233052 83 193 3.0 7.0 0.00 0.00 0.00 27 1008.2
20260504232551 83 160 3.0 7.0 0.00 0.00 0.00 28 1008.2
20260504232050 83 232 2.0 7.0 0.00 0.00 0.00 27 1008.2
20260504231549 83 212 4.0 7.0 0.00 0.00 0.00 26 1008.2
20260504231049 83 183 2.0 4.0 0.00 0.00 0.00 27 1008.2
20260504230549 83 266 1.0 7.0 0.00 0.00 0.00 28 1008.3
20260504230050 83 203 2.0 7.0 0.00 0.00 0.00 29 1008.3
20260504225546 83 247 2.0 5.0 0.00 0.00 0.00 33 1008.4
20260504225044 82 245 2.0 4.0 0.00 0.00 0.00 27 1008.4
20260504224547 83 212 1.0 3.0 0.00 0.00 0.00 29 1008.5
20260504224043 83 247 1.0 6.0 0.00 0.00 0.00 30 1008.5
20260504223542 82 214 2.0 5.0 0.00 0.00 0.00 30 1008.5
20260504223043 83 224 1.0 6.0 0.00 0.00 0.00 30 1008.5
20260504222545 83 200 2.0 7.0 0.00 0.00 0.00 30 1008.5
20260504222042 83 212 3.0 8.0 0.00 0.00 0.00 30 1008.6
20260504221542 83 213 2.0 8.0 0.00 0.00 0.00 33 1008.6
20260504221040 83 215 3.0 7.0 0.00 0.00 0.00 32 1008.6
20260504220538 82 194 3.0 6.0 0.00 0.00 0.00 33 1008.6
20260504220038 82 192 2.0 6.0 0.00 0.00 0.00 33 1008.6
20260504215537 82 211 3.0 6.0 0.00 0.00 0.00 34 1008.7
20260504215035 82 197 2.0 9.0 0.00 0.00 0.00 32 1008.7
20260504214536 82 210 3.0 8.0 0.00 0.00 0.00 33 1008.7
20260504214036 82 143 2.0 8.0 0.00 0.00 0.00 33 1008.7
20260504213534 81 183 3.0 7.0 0.00 0.00 0.00 32 1008.8
20260504213033 82 155 2.0 8.0 0.00 0.00 0.00 33 1008.9
20260504212532 81 224 3.0 6.0 0.00 0.00 0.00 33 1008.9
20260504212034 82 234 1.0 6.0 0.00 0.00 0.00 33 1008.9
20260504211534 81 286 2.0 8.0 0.00 0.00 0.00 34 1009.0
20260504211031 81 311 3.0 8.0 0.00 0.00 0.00 35 1009.0
20260504210530 81 182 2.0 8.0 0.00 0.00 0.00 32 1009.1
20260504210037 81 208 3.0 6.0 0.00 0.00 0.00 32 1009.2
20260504205529 81 211 2.0 6.0 0.00 0.00 0.00 32 1009.1
20260504205028 81 37 2.0 5.0 0.00 0.00 0.00 32 1009.2
20260504204537 81 214 2.0 8.0 0.00 0.00 0.00 34 1009.3
20260504204027 81 170 2.0 8.0 0.00 0.00 0.00 33 1009.3
20260504203526 81 223 2.0 7.0 0.00 0.00 0.00 33 1009.3
20260504203027 81 166 2.0 7.0 0.00 0.00 0.00 35 1009.3
20260504202525 80 164 2.0 7.0 0.00 0.00 0.00 35 1009.3
20260504202022 80 135 3.0 7.0 0.00 0.00 0.00 34 1009.3
20260504201520 80 203 4.0 7.0 0.00 0.00 0.00 34 1009.3
20260504201020 79 216 4.0 7.0 0.00 0.00 0.00 34 1009.4
20260504200519 79 197 2.0 8.0 0.00 0.00 0.00 35 1009.4
20260504200019 79 245 3.0 8.0 0.00 0.00 0.00 35 1009.4
20260504195517 79 280 3.0 8.0 0.00 0.00 0.00 34 1009.5
20260504195017 79 222 2.0 7.0 0.00 0.00 0.00 36 1009.5
20260504194517 79 176 2.0 6.0 0.00 0.00 0.00 35 1009.6
20260504194016 79 151 2.0 9.0 0.00 0.00 0.00 35 1009.6
20260504193516 79 193 5.0 9.0 0.00 0.00 0.00 35 1009.5
20260504193014 79 214 4.0 8.0 0.00 0.00 0.00 34 1009.6
20260504192514 78 147 2.0 7.0 0.00 0.00 0.00 35 1009.6
20260504192014 78 197 4.0 8.0 0.00 0.00 0.00 36 1009.6
20260504191511 79 170 2.0 7.0 0.00 0.00 0.00 37 1009.6
20260504191011 78 216 3.0 7.0 0.00 0.00 0.00 36 1009.7
20260504190508 78 205 3.0 7.0 0.00 0.00 0.00 36 1009.7
20260504190007 78 208 2.0 7.0 0.00 0.00 0.00 37 1009.8
20260504185606 77 215 2.0 7.0 0.00 0.00 0.00 36 1009.8
20260504185005 77 179 5.0 8.0 0.00 0.00 0.00 37 1009.8
20260504184504 77 170 4.0 8.0 0.00 0.00 0.00 38 1009.7
20260504184002 77 193 2.0 10.0 0.00 0.00 0.00 41 1009.7
20260504183601 76 214 5.0 10.0 0.00 0.00 0.00 40 1009.7
20260504183504 76 184 3.0 8.0 0.00 0.00 0.00 40 1009.7
20260504183104 76 223 3.0 6.0 0.00 0.00 0.00 41 1009.7
20260504182558 76 268 4.0 6.0 0.00 0.00 0.00 42 1009.7
20260504182058 76 245 3.0 6.0 0.00 0.00 0.00 41 1009.8
20260504181556 76 237 1.0 7.0 0.00 0.00 0.00 40 1009.7
20260504181056 75 237 1.0 7.0 0.00 0.00 0.00 43 1009.8
20260504180553 75 204 2.0 6.0 0.00 0.00 0.00 42 1009.8
20260504180106 75 210 1.0 5.0 0.00 0.00 0.00 43 1009.8
20260504175552 75 243 1.0 5.0 0.00 0.00 0.00 45 1009.9
20260504175055 74 196 1.0 6.0 0.00 0.00 0.00 45 1009.9
20260504174550 74 124 3.0 6.0 0.00 0.00 0.00 43 1009.8
20260504174049 73 180 3.0 6.0 0.00 0.00 0.00 43 1009.8
20260504173548 73 176 2.0 5.0 0.00 0.00 0.00 45 1009.8
20260504173058 73 230 1.0 5.0 0.00 0.00 0.00 47 1009.8
20260504172545 73 234 1.0 5.0 0.00 0.00 0.00 47 1009.9
20260504172044 72 231 2.0 6.0 0.00 0.00 0.00 47 1009.9
20260504171545 72 221 3.0 6.0 0.00 0.00 0.00 46 1009.9
20260504171042 72 220 0.0 6.0 0.00 0.00 0.00 45 1009.9
20260504170540 72 180 2.0 7.0 0.00 0.00 0.00 46 1009.9
20260504151009 62 330 0.0 4.0 0.00 0.00 0.00 62 1010.0
20260504150508 62 337 1.0 4.0 0.00 0.00 0.00 58 1009.9
20260504141054 59 14 3.0 6.0 0.00 0.00 0.00 59 1009.6
20260504140553 59 305 3.0 4.0 0.00 0.00 0.00 61 1009.7
20260504130544 58 20 3.0 5.0 0.00 0.00 0.00 59 1009.2
20260504110531 59 10 1.0 4.0 0.00 0.00 0.00 61 1009.2
20260504100521 60 10 2.0 4.0 0.00 0.00 0.00 58 1009.0
20260504081548 67 5 0.0 2.0 0.00 0.00 0.00 47 1008.8
20260504081048 67 120 0.0 2.0 0.00 0.00 0.00 47 1008.8
20260504080551 67 120 0.0 4.0 0.00 0.00 0.00 46 1008.8
20260504050530 70 31 8.0 14.0 0.00 0.00 0.00 41 1008.6
20260504045529 71 353 6.0 13.0 0.00 0.00 0.00 41 1008.6
20260504045029 71 323 7.0 13.0 0.00 0.00 0.00 41 1008.6
20260504044520 71 349 7.0 12.0 0.00 0.00 0.00 41 1008.6
20260504044012 71 10 7.0 12.0 0.00 0.00 0.00 40 1008.6
20260504043514 71 39 7.0 11.0 0.00 0.00 0.00 40 1008.6
20260504043015 71 351 6.0 11.0 0.00 0.00 0.00 40 1008.6
20260504042513 71 5 5.0 12.0 0.00 0.00 0.00 40 1008.6
20260504042011 71 10 6.0 12.0 0.00 0.00 0.00 40 1008.7
20260504041533 71 10 6.0 11.0 0.00 0.00 0.00 40 1008.7
20260504041010 71 351 6.0 10.0 0.00 0.00 0.00 40 1008.7
20260504040510 71 16 4.0 10.0 0.00 0.00 0.00 41 1008.7
20260504040019 71 333 5.0 8.0 0.00 0.00 0.00 41 1008.7
20260504035510 71 31 5.0 10.0 0.00 0.00 0.00 41 1008.6
20260504035010 71 360 5.0 10.0 0.00 0.00 0.00 42 1008.6
20260504034510 71 10 2.0 5.0 0.00 0.00 0.00 43 1008.6
20260504034009 72 355 2.0 4.0 0.00 0.00 0.00 44 1008.6
20260504033509 72 360 1.0 3.0 0.00 0.00 0.00 43 1008.6
20260504033009 73 360 1.0 3.0 0.00 0.00 0.00 43 1008.6
20260504032515 73 330 0.0 3.0 0.00 0.00 0.00 43 1008.6
20260504032007 73 360 0.0 4.0 0.00 0.00 0.00 42 1008.6
20260504031507 74 335 2.0 4.0 0.00 0.00 0.00 41 1008.6
20260504031005 75 343 2.0 4.0 0.00 0.00 0.00 40 1008.6
20260504030505 75 348 2.0 3.0 0.00 0.00 0.00 39 1008.6
20260504030005 76 347 2.0 4.0 0.00 0.00 0.00 39 1008.6
20260504025507 77 5 2.0 4.0 0.00 0.00 0.00 39 1008.6
20260504025005 78 339 1.0 3.0 0.00 0.00 0.00 39 1008.6
20260504024505 79 286 0.0 2.0 0.00 0.00 0.00 39 1008.7
20260504024046 80 286 0.0 3.0 0.00 0.00 0.00 38 1008.6
20260504023546 81 286 0.0 3.0 0.00 0.00 0.00 36 1008.7
20260504023045 82 205 0.0 2.0 0.00 0.00 0.00 35 1008.8
20260504022545 82 205 0.0 2.0 0.00 0.00 0.00 33 1008.8
20260504022045 83 205 0.0 3.0 0.00 0.00 0.00 32 1008.8
20260504021549 83 205 1.0 3.0 0.00 0.00 0.00 31 1008.8
20260504021047 83 202 0.0 4.0 0.00 0.00 0.00 30 1008.8
20260504020542 83 187 2.0 4.0 0.00 0.00 0.00 29 1008.9
20260504020044 83 220 2.0 4.0 0.00 0.00 0.00 28 1008.9
20260504015542 84 257 2.0 3.0 0.00 0.00 0.00 28 1008.9
20260504015042 84 193 0.0 4.0 0.00 0.00 0.00 28 1008.9
20260504014542 84 234 1.0 4.0 0.00 0.00 0.00 28 1008.9
20260504014044 84 349 1.0 3.0 0.00 0.00 0.00 27 1009.1
20260504013540 84 159 1.0 4.0 0.00 0.00 0.00 29 1009.2
20260504013054 84 228 1.0 4.0 0.00 0.00 0.00 27 1009.2
20260504012538 85 226 1.0 5.0 0.00 0.00 0.00 28 1009.3
20260504012039 85 274 2.0 5.0 0.00 0.00 0.00 27 1009.3
20260504011536 84 208 1.0 5.0 0.00 0.00 0.00 28 1009.4
20260504011034 84 197 1.0 4.0 0.00 0.00 0.00 27 1009.4
20260504010534 84 287 1.0 4.0 0.00 0.00 0.00 27 1009.6